Sankoushin — JD2465 — position and weather

sailwx.info

Track history (hours):
 
Tides and Currents Weather Stations Pressure Air Temp Water Temp Dewpoint Dewpoint Depression Visibility Wind Speed Wind Dir Waves Ship Positions

Sankoushin

Last reported at 2014-Jul-25 15:25 UTC. Time now 2014-Jul-25 16:06 UTC.
Position N 35°56' E 140°40'.

Length 71 m; draft 4.2 m.

Type: Cargo ship. MMSI: 431000269.

Date/timePositionNaut miles runAvg speedWind from/ knotsBaromVisibWave heightAir tempDewpointWater temp
2014-Jul-25 15:25N 35°56' E 140°40'0 0.0
2014-Jul-25 12:31N 35°56' E 140°40'0 0.1
2014-Jul-25 11:31N 35°56' E 140°40'0 0.0
2014-Jul-25 10:28N 35°56' E 140°40'0 0.0
2014-Jul-25 07:13N 35°56' E 140°40'0 0.1
2014-Jul-25 06:31N 35°56' E 140°40'0 0.2
2014-Jul-25 05:30N 35°55' E 140°40'0 0.0
2014-Jul-25 03:18N 35°55' E 140°40'0 0.0
2014-Jul-25 02:30N 35°55' E 140°40'0 0.0
2014-Jul-25 00:30N 35°55' E 140°40'0 0.0
2014-Jul-24 23:30N 35°55' E 140°40'0 0.0
2014-Jul-24 22:33N 35°55' E 140°40'0 0.0
2014-Jul-24 21:33N 35°55' E 140°40'0 0.0
2014-Jul-24 20:30N 35°55' E 140°40'0 0.3
2014-Jul-24 19:31N 35°56' E 140°40'0 0.1
2014-Jul-24 18:25N 35°56' E 140°40'0 0.0
2014-Jul-24 13:17N 35°56' E 140°40'0 0.0
2014-Jul-24 12:22N 35°56' E 140°40'0 0.1
2014-Jul-24 11:33N 35°56' E 140°40'0 0.1
2014-Jul-24 10:34N 35°56' E 140°40'0 0.1
2014-Jul-24 09:32N 35°56' E 140°40'0 0.0
2014-Jul-24 08:20N 35°56' E 140°40'0 0.0
2014-Jul-24 07:32N 35°56' E 140°40'0 0.0
2014-Jul-24 05:20N 35°56' E 140°40'0 0.0
2014-Jul-24 04:32N 35°56' E 140°40'0 0.0
2014-Jul-24 02:32N 35°56' E 140°40'0 0.0
2014-Jul-24 01:20N 35°56' E 140°40'0 0.0
2014-Jul-24 00:14N 35°56' E 140°40'0 0.0
2014-Jul-23 23:26N 35°56' E 140°40'0 0.0
2014-Jul-23 22:32N 35°56' E 140°40'0 0.0
2014-Jul-23 21:32N 35°56' E 140°40'0 0.0
2014-Jul-23 20:32N 35°56' E 140°40'0 0.0
2014-Jul-23 19:32N 35°56' E 140°40'0 0.1
2014-Jul-23 18:33N 35°56' E 140°40'4 4.3
2014-Jul-23 17:33N 35°58' E 140°44'1711.8
2014-Jul-23 16:09N 35°44' E 140°55'711.4
2014-Jul-23 15:33N 35°37' E 140°51'1312.5
2014-Jul-23 14:33N 35°27' E 140°42'1412.4
2014-Jul-23 13:25N 35°16' E 140°32'2513.3
2014-Jul-23 11:33N 34°60' E 140°09'1812.7
2014-Jul-23 10:06N 34°52' E 139°49'813.8
2014-Jul-23 09:33N 34°59' E 139°44'1212.2
2014-Jul-23 08:33N 35°11' E 139°46'1211.8
2014-Jul-23 07:33N 35°22' E 139°42'1211.6
2014-Jul-23 06:33N 35°30' E 139°52'1211.8
2014-Jul-23 05:33N 35°36' E 140°05'1 0.9
2014-Jul-23 04:32N 35°37' E 140°05'0 0.0
2014-Jul-23 03:32N 35°37' E 140°05'0 0.0
2014-Jul-23 02:26N 35°37' E 140°05'0 0.0
2014-Jul-23 01:32N 35°37' E 140°05'0 0.0
2014-Jul-23 00:33N 35°37' E 140°05'2 2.3
2014-Jul-22 23:28N 35°35' E 140°03'0 0.0
2014-Jul-22 22:31N 35°35' E 140°03'0 0.0
2014-Jul-22 21:31N 35°35' E 140°03'0 0.0
2014-Jul-22 20:25N 35°35' E 140°03'0 0.1
2014-Jul-22 19:31N 35°35' E 140°03'0 0.0
2014-Jul-22 18:28N 35°35' E 140°03'0 0.0
2014-Jul-22 17:28N 35°35' E 140°03'0 0.0
2014-Jul-22 16:31N 35°35' E 140°03'0 0.0
2014-Jul-22 15:28N 35°35' E 140°03'0 0.0
2014-Jul-22 14:31N 35°35' E 140°03'0 0.0
2014-Jul-22 13:31N 35°35' E 140°03'0 0.0
2014-Jul-22 12:31N 35°35' E 140°03'0 0.0
2014-Jul-22 11:31N 35°35' E 140°03'0 0.0
2014-Jul-22 10:28N 35°35' E 140°03'0 0.0
2014-Jul-22 09:31N 35°35' E 140°03'0 0.0
2014-Jul-22 08:25N 35°35' E 140°03'0 0.0
2014-Jul-22 07:31N 35°35' E 140°03'0 0.0
2014-Jul-22 06:31N 35°35' E 140°03'0 0.0
2014-Jul-22 05:31N 35°35' E 140°03'0 0.0
2014-Jul-22 04:22N 35°35' E 140°03'2 3.0
2014-Jul-22 03:33N 35°33' E 140°01'1211.7
2014-Jul-22 02:34N 35°26' E 139°49'1010.3
2014-Jul-22 01:33N 35°16' E 139°46'1110.9
2014-Jul-22 00:34N 35°06' E 139°45'1212.1
2014-Jul-21 23:34N 34°58' E 139°33'  
2014-Jul-18 13:30N 34°14' E 134°59'7 7.4
2014-Jul-18 12:33N 34°15' E 135°07'0 0.0
2014-Jul-18 11:32N 34°15' E 135°07'0 0.0
2014-Jul-18 10:32N 34°15' E 135°07'0 0.0
2014-Jul-18 09:32N 34°15' E 135°07'0 0.0
2014-Jul-18 08:32N 34°15' E 135°07'0 0.0
2014-Jul-18 07:32N 34°15' E 135°07'0 0.0
2014-Jul-18 06:32N 34°15' E 135°07'0 0.0
2014-Jul-18 05:32N 34°15' E 135°07'0 0.0
2014-Jul-18 04:32N 34°15' E 135°07'0 0.0
2014-Jul-18 03:29N 34°15' E 135°07'0 0.0
2014-Jul-18 02:32N 34°15' E 135°07'0 0.0
2014-Jul-18 01:29N 34°15' E 135°07'0 0.0
2014-Jul-18 00:32N 34°15' E 135°07'0 0.0
2014-Jul-17 23:29N 34°15' E 135°07'0 0.0
2014-Jul-17 22:32N 34°15' E 135°07'0 0.0
2014-Jul-17 21:29N 34°15' E 135°07'0 0.0
2014-Jul-17 20:33N 34°15' E 135°07'7 6.6
2014-Jul-17 19:32N 34°09' E 135°03'230 9.1
2014-Jul-16 18:25N 34°50' E 139°37'2010.8
2014-Jul-16 16:32N 34°55' E 140°01'1010.1
2014-Jul-16 15:32N 35°00' E 140°12'20 9.7
2014-Jul-16 13:25N 35°15' E 140°30'44 9.1
2014-Jul-16 08:33N 35°58' E 140°43'3 1.3
2014-Jul-16 06:16N 35°56' E 140°40'0 0.0
2014-Jul-16 01:14N 35°56' E 140°40'0 0.0
2014-Jul-15 23:28N 35°56' E 140°40'0 0.1
2014-Jul-15 22:32N 35°56' E 140°40'2 0.7
2014-Jul-15 19:05N 35°57' E 140°42'0 0.0
2014-Jul-15 18:26N 35°57' E 140°42'0 0.0
2014-Jul-15 17:23N 35°57' E 140°42'0 0.0
2014-Jul-15 15:29N 35°57' E 140°42'  
Track history (hours):
 
Tides and Currents Weather Stations Pressure Air Temp Water Temp Dewpoint Dewpoint Depression Visibility Wind Speed Wind Dir Waves Ship Positions

Sankoushin

Last reported at 2014-Jul-25 15:25 UTC. Time now 2014-Jul-25 16:06 UTC.
Position N 35°56' E 140°40'.

Length 71 m; draft 4.2 m.

Type: Cargo ship. MMSI: 431000269.

Date/timePositionNaut miles runAvg speedWind from/ knotsBaromVisibWave heightAir tempDewpointWater temp
2014-Jul-25 15:25N 35°56' E 140°40'0 0.0
2014-Jul-25 12:31N 35°56' E 140°40'0 0.1
2014-Jul-25 11:31N 35°56' E 140°40'0 0.0
2014-Jul-25 10:28N 35°56' E 140°40'0 0.0
2014-Jul-25 07:13N 35°56' E 140°40'0 0.1
2014-Jul-25 06:31N 35°56' E 140°40'0 0.2
2014-Jul-25 05:30N 35°55' E 140°40'0 0.0
2014-Jul-25 03:18N 35°55' E 140°40'0 0.0
2014-Jul-25 02:30N 35°55' E 140°40'0 0.0
2014-Jul-25 00:30N 35°55' E 140°40'0 0.0
2014-Jul-24 23:30N 35°55' E 140°40'0 0.0
2014-Jul-24 22:33N 35°55' E 140°40'0 0.0
2014-Jul-24 21:33N 35°55' E 140°40'0 0.0
2014-Jul-24 20:30N 35°55' E 140°40'0 0.3
2014-Jul-24 19:31N 35°56' E 140°40'0 0.1
2014-Jul-24 18:25N 35°56' E 140°40'0 0.0
2014-Jul-24 13:17N 35°56' E 140°40'0 0.0
2014-Jul-24 12:22N 35°56' E 140°40'0 0.1
2014-Jul-24 11:33N 35°56' E 140°40'0 0.1
2014-Jul-24 10:34N 35°56' E 140°40'0 0.1
2014-Jul-24 09:32N 35°56' E 140°40'0 0.0
2014-Jul-24 08:20N 35°56' E 140°40'0 0.0
2014-Jul-24 07:32N 35°56' E 140°40'0 0.0
2014-Jul-24 05:20N 35°56' E 140°40'0 0.0
2014-Jul-24 04:32N 35°56' E 140°40'0 0.0
2014-Jul-24 02:32N 35°56' E 140°40'0 0.0
2014-Jul-24 01:20N 35°56' E 140°40'0 0.0
2014-Jul-24 00:14N 35°56' E 140°40'0 0.0
2014-Jul-23 23:26N 35°56' E 140°40'0 0.0
2014-Jul-23 22:32N 35°56' E 140°40'0 0.0
2014-Jul-23 21:32N 35°56' E 140°40'0 0.0
2014-Jul-23 20:32N 35°56' E 140°40'0 0.0
2014-Jul-23 19:32N 35°56' E 140°40'0 0.1
2014-Jul-23 18:33N 35°56' E 140°40'4 4.3
2014-Jul-23 17:33N 35°58' E 140°44'1711.8
2014-Jul-23 16:09N 35°44' E 140°55'711.4
2014-Jul-23 15:33N 35°37' E 140°51'1312.5
2014-Jul-23 14:33N 35°27' E 140°42'1412.4
2014-Jul-23 13:25N 35°16' E 140°32'2513.3
2014-Jul-23 11:33N 34°60' E 140°09'1812.7
2014-Jul-23 10:06N 34°52' E 139°49'813.8
2014-Jul-23 09:33N 34°59' E 139°44'1212.2
2014-Jul-23 08:33N 35°11' E 139°46'1211.8
2014-Jul-23 07:33N 35°22' E 139°42'1211.6
2014-Jul-23 06:33N 35°30' E 139°52'1211.8
2014-Jul-23 05:33N 35°36' E 140°05'1 0.9
2014-Jul-23 04:32N 35°37' E 140°05'0 0.0
2014-Jul-23 03:32N 35°37' E 140°05'0 0.0
2014-Jul-23 02:26N 35°37' E 140°05'0 0.0
2014-Jul-23 01:32N 35°37' E 140°05'0 0.0
2014-Jul-23 00:33N 35°37' E 140°05'2 2.3
2014-Jul-22 23:28N 35°35' E 140°03'0 0.0
2014-Jul-22 22:31N 35°35' E 140°03'0 0.0
2014-Jul-22 21:31N 35°35' E 140°03'0 0.0
2014-Jul-22 20:25N 35°35' E 140°03'0 0.1
2014-Jul-22 19:31N 35°35' E 140°03'0 0.0
2014-Jul-22 18:28N 35°35' E 140°03'0 0.0
2014-Jul-22 17:28N 35°35' E 140°03'0 0.0
2014-Jul-22 16:31N 35°35' E 140°03'0 0.0
2014-Jul-22 15:28N 35°35' E 140°03'0 0.0
2014-Jul-22 14:31N 35°35' E 140°03'0 0.0
2014-Jul-22 13:31N 35°35' E 140°03'0 0.0
2014-Jul-22 12:31N 35°35' E 140°03'0 0.0
2014-Jul-22 11:31N 35°35' E 140°03'0 0.0
2014-Jul-22 10:28N 35°35' E 140°03'0 0.0
2014-Jul-22 09:31N 35°35' E 140°03'0 0.0
2014-Jul-22 08:25N 35°35' E 140°03'0 0.0
2014-Jul-22 07:31N 35°35' E 140°03'0 0.0
2014-Jul-22 06:31N 35°35' E 140°03'0 0.0
2014-Jul-22 05:31N 35°35' E 140°03'0 0.0
2014-Jul-22 04:22N 35°35' E 140°03'2 3.0
2014-Jul-22 03:33N 35°33' E 140°01'1211.7
2014-Jul-22 02:34N 35°26' E 139°49'1010.3
2014-Jul-22 01:33N 35°16' E 139°46'1110.9
2014-Jul-22 00:34N 35°06' E 139°45'1212.1
2014-Jul-21 23:34N 34°58' E 139°33'  
2014-Jul-18 13:30N 34°14' E 134°59'7 7.4
2014-Jul-18 12:33N 34°15' E 135°07'0 0.0
2014-Jul-18 11:32N 34°15' E 135°07'0 0.0
2014-Jul-18 10:32N 34°15' E 135°07'0 0.0
2014-Jul-18 09:32N 34°15' E 135°07'0 0.0
2014-Jul-18 08:32N 34°15' E 135°07'0 0.0
2014-Jul-18 07:32N 34°15' E 135°07'0 0.0
2014-Jul-18 06:32N 34°15' E 135°07'0 0.0
2014-Jul-18 05:32N 34°15' E 135°07'0 0.0
2014-Jul-18 04:32N 34°15' E 135°07'0 0.0
2014-Jul-18 03:29N 34°15' E 135°07'0 0.0
2014-Jul-18 02:32N 34°15' E 135°07'0 0.0
2014-Jul-18 01:29N 34°15' E 135°07'0 0.0
2014-Jul-18 00:32N 34°15' E 135°07'0 0.0
2014-Jul-17 23:29N 34°15' E 135°07'0 0.0
2014-Jul-17 22:32N 34°15' E 135°07'0 0.0
2014-Jul-17 21:29N 34°15' E 135°07'0 0.0
2014-Jul-17 20:33N 34°15' E 135°07'7 6.6
2014-Jul-17 19:32N 34°09' E 135°03'230 9.1
2014-Jul-16 18:25N 34°50' E 139°37'2010.8
2014-Jul-16 16:32N 34°55' E 140°01'1010.1
2014-Jul-16 15:32N 35°00' E 140°12'20 9.7
2014-Jul-16 13:25N 35°15' E 140°30'44 9.1
2014-Jul-16 08:33N 35°58' E 140°43'3 1.3
2014-Jul-16 06:16N 35°56' E 140°40'0 0.0
2014-Jul-16 01:14N 35°56' E 140°40'0 0.0
2014-Jul-15 23:28N 35°56' E 140°40'0 0.1
2014-Jul-15 22:32N 35°56' E 140°40'2 0.7
2014-Jul-15 19:05N 35°57' E 140°42'0 0.0
2014-Jul-15 18:26N 35°57' E 140°42'0 0.0
2014-Jul-15 17:23N 35°57' E 140°42'0 0.0
2014-Jul-15 15:29N 35°57' E 140°42'  

Dump ship's entire track history